MIR 1 16609U 86017A 99190.45628959 .00020816 00000-0 15535-3 0 6547 2 16609 51.6619 229.8619 0005138 286.8870 73.1587 15.72692761764919 ---- Via the sarex mailing list at AMSAT.ORG courtesy of AMSAT-NA. To unsubscribe, send "unsubscribe sarex" to Majordomo@amsat.org